Rush City, MN

7:40 AM CST on February 24, 2017 (GMT -0600)
Rush City Regional

Weather History for KROS - October, 2012

Change the Weather History Date:

Sunday, October 21, 2012

  Actual Average (KCBG) Record (KCBG)
Temperature  
Mean Temperature 50 °F -  
Max Temperature 64 °F 53 °F 79 °F (1953)
Min Temperature 37 °F 34 °F 22 °F (1967)
Degree Days  
Heating Degree Days 14    
Moisture  
Dew Point 41 °F    
Average Humidity 72    
Maximum Humidity 97    
Minimum Humidity 41    
Precipitation  
Precipitation 0.00 in - - ()
Sea Level Pressure  
Sea Level Pressure 29.84 in    
Wind  
Wind Speed 4 mph (ESE)    
Max Wind Speed 14 mph    
Max Gust Speed 17 mph    
Visibility 10 miles    
Events      
Averages and records for this station are not official NWS values.
T = Trace of Precipitation, MM = Missing Value Source: NWS Daily Summary

Daily Weather History Graph

Daily Weather History Graph

Search for Another Location

Airport or City:

Trip Planner

Search our weather history database for the weather conditions in past years. The results will help you decide how hot, cold, wet, or windy it might be!

Date:

Astronomy

Oct. 21, 2012 Rise Set
Actual Time 7:37 AM CDT 6:14 PM CDT
Civil Twilight 7:06 AM CDT 6:45 PM CDT
Nautical Twilight 6:32 AM CDT 7:19 PM CDT
Astronomical Twilight 5:57 AM CDT 7:54 PM CDT
Moon 2:04 PM CDT (10/21) No Moon Set
Length of Visible Light 11h 38m
Length of Day
10h 37m
Waxing Crescent, 45% of the Moon is Illuminated
Oct 21
Waxing Crescent
Oct 21
First Quarter
Oct 29
Full
Nov 6
Last Quarter
Nov 13
New

Hourly Weather History & Observations

Time (CDT) Temp. Windchill Dew Point Humidity Pressure Visibility Wind Dir Wind Speed Gust Speed Precip Events Conditions
12:34 AM 40.1 °F - 38.3 °F 93% 29.83 in 10.0 mi Calm Calm - N/A   Clear
12:54 AM 41.0 °F - 39.2 °F 93% 29.84 in 10.0 mi Calm Calm - N/A   Clear
1:14 AM 40.1 °F - 38.3 °F 93% 29.84 in 10.0 mi Calm Calm - N/A   Clear
1:34 AM 40.1 °F - 38.3 °F 93% 29.84 in 10.0 mi Calm Calm - N/A   Clear
1:54 AM 39.6 °F 36.3 °F 37.9 °F 94% 29.84 in 10.0 mi ESE 4.6 mph - N/A   Scattered Clouds
2:14 AM 40.1 °F 38.0 °F 38.5 °F 94% 29.84 in 10.0 mi SE 3.5 mph - N/A   Scattered Clouds
2:34 AM 39.2 °F 37.0 °F 37.8 °F 95% 29.85 in 10.0 mi SE 3.5 mph - N/A   Scattered Clouds
2:54 AM 39.0 °F - 37.6 °F 95% 29.85 in 10.0 mi Calm Calm - N/A   Scattered Clouds
3:14 AM 38.8 °F 36.5 °F 37.4 °F 95% 29.85 in 10.0 mi ESE 3.5 mph - N/A   Scattered Clouds
3:34 AM 39.2 °F 37.0 °F 37.8 °F 95% 29.84 in 10.0 mi SE 3.5 mph - N/A   Scattered Clouds
3:54 AM 37.4 °F 34.9 °F 36.1 °F 95% 29.84 in 3.0 mi SE 3.5 mph - N/A   Clear
4:14 AM 37.8 °F 35.3 °F 36.5 °F 95% 29.85 in 7.0 mi SSE 3.5 mph - N/A   Clear
4:34 AM 39.0 °F 35.7 °F 37.9 °F 96% 29.85 in 10.0 mi SE 4.6 mph - N/A   Clear
4:54 AM 39.9 °F 35.8 °F 38.8 °F 96% 29.84 in 10.0 mi SE 5.8 mph - N/A   Clear
5:14 AM 40.3 °F 36.3 °F 39.2 °F 96% 29.84 in 10.0 mi SE 5.8 mph - N/A   Clear
5:34 AM 40.1 °F 38.0 °F 39.0 °F 96% 29.84 in 10.0 mi ESE 3.5 mph - N/A   Clear
5:54 AM 40.1 °F 38.0 °F 38.7 °F 95% 29.83 in 10.0 mi ESE 3.5 mph - N/A   Clear
6:14 AM 39.6 °F - 38.3 °F 95% 29.84 in 10.0 mi Calm Calm - N/A   Clear
6:34 AM 39.2 °F - 37.9 °F 95% 29.84 in 10.0 mi Calm Calm - N/A   Clear
6:54 AM 38.1 °F - 36.7 °F 95% 29.85 in 7.0 mi Calm Calm - N/A   Clear
7:14 AM 38.7 °F 36.3 °F 37.6 °F 96% 29.86 in 10.0 mi ESE 3.5 mph - N/A   Clear
7:34 AM 37.8 °F 34.2 °F 36.5 °F 95% 29.85 in 7.0 mi SE 4.6 mph - N/A   Scattered Clouds
7:54 AM 38.3 °F 35.9 °F 37.4 °F 97% 29.84 in 7.0 mi SE 3.5 mph - N/A   Clear
8:14 AM 39.2 °F 35.9 °F 38.3 °F 97% 29.83 in 10.0 mi East 4.6 mph - N/A   Clear
8:34 AM 40.6 °F 37.5 °F 39.6 °F 96% 29.83 in 10.0 mi ESE 4.6 mph - N/A   Clear
8:54 AM 42.1 °F 38.4 °F 41.0 °F 96% 29.83 in 10.0 mi ESE 5.8 mph - N/A   Clear
9:14 AM 42.3 °F 38.6 °F 40.8 °F 95% 29.83 in 10.0 mi ESE 5.8 mph - N/A   Clear
9:34 AM 44.4 °F 42.9 °F 42.1 °F 91% 29.84 in 10.0 mi ESE 3.5 mph - N/A   Clear
9:54 AM 47.1 °F - 42.8 °F 85% 29.84 in 10.0 mi ESE 6.9 mph - N/A   Scattered Clouds
10:14 AM 49.1 °F - 43.2 °F 80% 29.85 in 10.0 mi SE 4.6 mph - N/A   Clear
10:34 AM 51.8 °F - 43.7 °F 74% 29.85 in 10.0 mi SE 6.9 mph - N/A   Clear
10:54 AM 52.3 °F - 43.7 °F 72% 29.84 in 10.0 mi SE 8.1 mph - N/A   Clear
11:14 AM 54.9 °F - 44.2 °F 67% 29.84 in 10.0 mi SSE 10.4 mph - N/A   Scattered Clouds
11:34 AM 56.5 °F - 44.1 °F 63% 29.84 in 10.0 mi SSE 8.1 mph - N/A   Clear
11:54 AM 57.7 °F - 43.9 °F 60% 29.83 in 10.0 mi ESE 6.9 mph - N/A   Clear
12:14 PM 60.6 °F - 43.3 °F 53% 29.84 in 10.0 mi SE 9.2 mph - N/A   Clear
12:34 PM 61.2 °F - 41.9 °F 49% 29.83 in 10.0 mi ESE 6.9 mph - N/A   Scattered Clouds
12:55 PM 62.6 °F - 40.8 °F 45% 29.81 in 10.0 mi ESE 12.7 mph 16.1 mph N/A   Clear
1:14 PM 63.7 °F - 39.7 °F 41% 29.81 in 10.0 mi SE 9.2 mph 16.1 mph N/A   Clear
1:34 PM 64.0 °F - 39.7 °F 41% 29.80 in 10.0 mi SSE 11.5 mph - N/A   Clear
1:55 PM 63.7 °F - 40.3 °F 42% 29.80 in 10.0 mi SSE 10.4 mph 17.3 mph N/A   Clear
2:14 PM 64.0 °F - 40.3 °F 42% 29.79 in 10.0 mi SSE 12.7 mph 16.1 mph N/A   Clear
2:34 PM 63.0 °F - 40.1 °F 43% 29.80 in 10.0 mi SE 10.4 mph - N/A   Clear
2:55 PM 62.6 °F - 40.5 °F 44% 29.80 in 10.0 mi SSE 9.2 mph 17.3 mph N/A   Clear
3:14 PM 63.5 °F - 40.8 °F 43% 29.80 in 10.0 mi SE 13.8 mph - N/A   Clear
3:34 PM 63.7 °F - 41.7 °F 45% 29.81 in 10.0 mi SE 12.7 mph 16.1 mph N/A   Clear
3:55 PM 63.5 °F - 42.1 °F 46% 29.81 in 10.0 mi SE 6.9 mph - N/A   Clear
4:14 PM 63.5 °F - 42.4 °F 46% 29.81 in 10.0 mi SE 6.9 mph - N/A   Clear
4:34 PM 63.7 °F - 42.8 °F 47% 29.81 in 10.0 mi East 4.6 mph - N/A   Clear
4:54 PM 64.0 °F - 43.0 °F 46% 29.81 in 10.0 mi SE 5.8 mph - N/A   Clear
5:14 PM 64.9 °F - 43.0 °F 45% 29.81 in 10.0 mi ESE 8.1 mph - N/A   Clear
5:34 PM 63.9 °F - 42.8 °F 46% 29.81 in 10.0 mi SE 5.8 mph - N/A   Clear
5:55 PM 61.9 °F - 42.8 °F 50% 29.82 in 10.0 mi ESE 3.5 mph - N/A   Clear
6:14 PM 61.2 °F - 42.8 °F 51% 29.83 in 10.0 mi Calm Calm - N/A   Scattered Clouds
6:34 PM 59.7 °F - 43.0 °F 54% 29.84 in 10.0 mi North 3.5 mph - N/A   Mostly Cloudy
6:55 PM 57.2 °F - 42.6 °F 58% 29.85 in 10.0 mi NNE 4.6 mph - N/A   Overcast
7:14 PM 56.3 °F - 43.9 °F 63% 29.85 in 10.0 mi Calm Calm - N/A   Scattered Clouds
7:34 PM 55.6 °F - 42.3 °F 61% 29.86 in 10.0 mi NE 3.5 mph - N/A   Mostly Cloudy
7:55 PM 55.6 °F - 42.6 °F 62% 29.86 in 10.0 mi NNE 3.5 mph - N/A   Overcast
8:14 PM 54.9 °F - 42.6 °F 63% 29.87 in 10.0 mi NNE 5.8 mph - N/A   Overcast
8:34 PM 55.2 °F - 42.4 °F 62% 29.88 in 10.0 mi NNE 5.8 mph - N/A   Mostly Cloudy
8:54 PM 55.6 °F - 42.8 °F 62% 29.88 in 10.0 mi NNE 5.8 mph - N/A   Mostly Cloudy
9:14 PM 55.0 °F - 42.8 °F 63% 29.89 in 10.0 mi North 3.5 mph - N/A   Overcast
9:35 PM 53.4 °F - 42.6 °F 67% 29.90 in 10.0 mi NNE 4.6 mph - N/A   Mostly Cloudy
9:54 PM 53.1 °F - 42.4 °F 67% 29.91 in 10.0 mi North 5.8 mph - N/A   Mostly Cloudy
10:14 PM 52.9 °F - 42.3 °F 67% 29.91 in 10.0 mi North 5.8 mph - N/A   Scattered Clouds
10:34 PM 51.8 °F - 41.9 °F 69% 29.91 in 10.0 mi NNE 4.6 mph - N/A   Clear
10:54 PM 52.3 °F - 41.7 °F 67% 29.91 in 10.0 mi NNE 5.8 mph - N/A   Scattered Clouds
11:34 PM 51.3 °F - 41.4 °F 69% 29.92 in 10.0 mi NNE 5.8 mph - N/A   Clear
11:54 PM 50.9 °F - 41.9 °F 71% 29.91 in 10.0 mi NE 5.8 mph - N/A   Clear